,,Stat6,,Stat2,,Stat8,,Stat9,,Stat10,,Wind1,,Wind1,
time,status,PA1M_AVG,status,PR1M_SUM,status,RH1M_AVG,status,SR1M_AVG,status,TA1M_AVG,status,W1dAve1m,status,W1sAve1m,
2006-03-22, 00:00:01,VALID,916.058,VALID,0,VALID,100,VALID,0,VALID,20.1848,VALID,354,VALID,0.842348,
2006-03-22, 00:01:01,VALID,916.04,VALID,0,VALID,100,VALID,0,VALID,20.0687,VALID,358,VALID,0.824777,
2006-03-22, 00:02:01,VALID,916.035,VALID,0,VALID,100,VALID,0,VALID,19.3748,VALID,8,VALID,0.803354,
2006-03-22, 00:03:01,VALID,916.021,VALID,0,VALID,100,VALID,0,VALID,19.3449,VALID,10,VALID,1.20521,
2006-03-22, 00:04:01,VALID,915.994,VALID,0,VALID,100,VALID,0.0169808,VALID,20.3994,VALID,12,VALID,1.21745,
2006-03-22, 00:05:01,VALID,915.976,VALID,0,VALID,100,VALID,0,VALID,19.5722,VALID,1,VALID,0.694754,
2006-03-22, 00:06:01,VALID,915.954,VALID,0,VALID,100,VALID,-0.0169808,VALID,19.963,VALID,357,VALID,0.596799,
2006-03-22, 00:07:00,VALID,915.937,VALID,0,VALID,100,VALID,-0.0679233,VALID,18.9237,VALID,19,VALID,1.16967,
2006-03-22, 00:08:01,VALID,915.934,VALID,0,VALID,100,VALID,-0.0169808,VALID,20.0098,VALID,10,VALID,1.05469,
2006-03-22, 00:09:01,VALID,915.915,VALID,0,VALID,100,VALID,-0.683648,VALID,19.1978,VALID,10,VALID,0.607244,
2006-03-22, 00:10:01,VALID,915.904,VALID,0,VALID,100,VALID,-0.0169808,VALID,19.6112,VALID,4,VALID,0.689453,
2006-03-22, 00:11:00,VALID,915.887,VALID,0,VALID,100,VALID,-0.0339617,VALID,18.0766,VALID,325,VALID,1.17328,
2006-03-22, 00:12:01,VALID,915.872,VALID,0,VALID,100,VALID,-0.101885,VALID,18.8107,VALID,326,VALID,0.835227,
2006-03-22, 00:13:01,VALID,915.864,VALID,0,VALID,100,VALID,-0.0849042,VALID,20.6436,VALID,4,VALID,0.695518,
2006-03-22, 00:14:00,VALID,915.831,VALID,0,VALID,100,VALID,-0.0849042,VALID,19.7205,VALID,359,VALID,0.661882,
2006-03-22, 00:15:01,VALID,915.809,VALID,0,VALID,100,VALID,-0.0679233,VALID,20.2886,VALID,340,VALID,0.71875,
2006-03-22, 00:16:01,VALID,915.795,VALID,0,VALID,100,VALID,-0.0679233,VALID,18.5449,VALID,9,VALID,0.725472,
2006-03-22, 00:17:00,VALID,915.762,VALID,0,VALID,100,VALID,-0.101885,VALID,19.0256,VALID,13,VALID,0.867535,
2006-03-22, 00:18:01,VALID,915.732,VALID,0,VALID,100,VALID,-0.0169808,VALID,19.8567,VALID,343,VALID,0.966206,
2006-03-22, 00:19:01,VALID,915.712,VALID,0,VALID,100,VALID,-0.0679233,VALID,20.5508,VALID,338,VALID,1.4314,
2006-03-22, 00:20:00,VALID,915.686,VALID,0,VALID,100,VALID,-0.0339617,VALID,19.761,VALID,343,VALID,1.61365,
2006-03-22, 00:21:01,VALID,915.671,VALID,0,VALID,100,VALID,-0.0679233,VALID,20.2379,VALID,353,VALID,1.1633,
2006-03-22, 00:22:01,VALID,915.654,VALID,0,VALID,100,VALID,-0.0509425,VALID,19.3244,VALID,6,VALID,0.844922,
2006-03-22, 00:23:00,VALID,915.639,VALID,0,VALID,100,VALID,-0.0339617,VALID,20.5439,VALID,6,VALID,0.790153,
2006-03-22, 00:24:01,VALID,915.633,VALID,0,VALID,100,VALID,-0.683648,VALID,19.7552,VALID,5,VALID,0.655007,
2006-03-22, 00:25:01,VALID,915.609,VALID,0,VALID,100,VALID,0,VALID,19.7128,VALID,352,VALID,0.404119,
2006-03-22, 00:26:01,VALID,915.589,VALID,0,VALID,100,VALID,0,VALID,19.0505,VALID,353,VALID,0.616044,
2006-03-22, 00:27:01,VALID,915.581,VALID,0,VALID,100,VALID,0,VALID,19.4716,VALID,357,VALID,0.538542,
2006-03-22, 00:28:01,VALID,915.56,VALID,0,VALID,100,VALID,0,VALID,19.0514,VALID,15,VALID,0.666295,
2006-03-22, 00:29:01,VALID,915.553,VALID,0,VALID,100,VALID,-0.0509425,VALID,20.4196,VALID,15,VALID,0.534624,
2006-03-22, 00:30:01,VALID,915.543,VALID,0,VALID,100,VALID,0,VALID,18.7879,VALID,15,VALID,0.922619,
2006-03-22, 00:31:01,VALID,915.523,VALID,0,VALID,100,VALID,-0.0679233,VALID,18.9314,VALID,26,VALID,0.826349,
2006-03-22, 00:32:01,VALID,915.529,VALID,0,VALID,100,VALID,-0.0339617,VALID,19.8839,VALID,22,VALID,0.741832,
2006-03-22, 00:33:01,VALID,915.521,VALID,0,VALID,100,VALID,-0.0339617,VALID,20.0906,VALID,349,VALID,0.62691,
2006-03-22, 00:34:01,VALID,915.518,VALID,0,VALID,100,VALID,-0.0509425,VALID,19.6457,VALID,10,VALID,0.450107,
2006-03-22, 00:35:01,VALID,915.529,VALID,0,VALID,100,VALID,-0.0339617,VALID,19.3765,VALID,17,VALID,0.370908,
2006-03-22, 00:36:01,VALID,915.526,VALID,0,VALID,100,VALID,-0.0339617,VALID,19.2401,VALID,39,VALID,0.379002,
2006-03-22, 00:37:01,VALID,915.528,VALID,0,VALID,100,VALID,0,VALID,20.701,VALID,38,VALID,0.228609,
2006-03-22, 00:38:01,VALID,915.516,VALID,0,VALID,100,VALID,-0.0509425,VALID,19.1428,VALID,36,VALID,0.0822088,
2006-03-22, 00:39:01,VALID,915.514,VALID,0,VALID,100,VALID,-0.683648,VALID,20.3957,VALID,36,VALID,0.0974702,
2006-03-22, 00:40:01,VALID,915.499,VALID,0,VALID,100,VALID,-0.0509425,VALID,20.3036,VALID,36,VALID,0.0921875,
2006-03-22, 00:41:01,VALID,915.473,VALID,0,VALID,100,VALID,-0.0169808,VALID,20.196,VALID,33,VALID,0.407738,
2006-03-22, 00:42:01,VALID,915.456,VALID,0,VALID,100,VALID,-0.0169808,VALID,20.3918,VALID,28,VALID,0.433594,
2006-03-22, 00:43:01,VALID,915.457,VALID,0,VALID,100,VALID,-0.0169808,VALID,19.7373,VALID,2,VALID,0.227471,
2006-03-22, 00:44:01,VALID,915.436,VALID,0,VALID,100,VALID,-0.0509425,VALID,19.6899,VALID,272,VALID,0.2413,
2006-03-22, 00:45:00,VALID,915.428,VALID,0,VALID,100,VALID,-0.0509425,VALID,19.8609,VALID,272,VALID,0.17207,
2006-03-22, 00:46:00,VALID,915.428,VALID,0,VALID,100,VALID,-0.0339617,VALID,20.4113,VALID,272,VALID,0.240659,
2006-03-22, 00:47:00,VALID,915.415,VALID,0,VALID,100,VALID,-0.0509425,VALID,19.554,VALID,272,VALID,0.304497,
2006-03-22, 00:48:00,VALID,915.402,VALID,0,VALID,100,VALID,0.0849042,VALID,19.7316,VALID,272,VALID,0.223772,
2006-03-22, 00:49:00,VALID,915.394,VALID,0,VALID,100,VALID,0.0339617,VALID,18.0935,VALID,272,VALID,0.0171494,
2006-03-22, 00:50:00,VALID,915.395,VALID,0,VALID,100,VALID,-0.0679233,VALID,19.6901,VALID,265,VALID,0.341206,
2006-03-22, 00:51:00,VALID,915.389,VALID,0,VALID,100,VALID,0.0509425,VALID,20.3789,VALID,249,VALID,0.696243,
2006-03-22, 00:52:00,VALID,915.387,VALID,0,VALID,100,VALID,0.0679233,VALID,19.3243,VALID,243,VALID,0.276708,
2006-03-22, 00:53:00,VALID,915.392,VALID,0,VALID,100,VALID,0,VALID,20.0283,VALID,243,VALID,0.138509,
2006-03-22, 00:54:00,VALID,915.381,VALID,0,VALID,100,VALID,-0.666667,VALID,19.359,VALID,243,VALID,0.149891,
2006-03-22, 00:55:00,VALID,915.364,VALID,0,VALID,100,VALID,-0.0509425,VALID,19.8692,VALID,246,VALID,0.296148,
2006-03-22, 00:56:00,VALID,915.356,VALID,0,VALID,100,VALID,-0.0339617,VALID,20.4955,VALID,247,VALID,0.100675,
2006-03-22, 00:57:00,VALID,915.33,VALID,0,VALID,100,VALID,-0.101885,VALID,19.4734,VALID,277,VALID,0.39968,
2006-03-22, 00:58:00,VALID,915.309,VALID,0,VALID,100,VALID,-0.0339617,VALID,19.9633,VALID,335,VALID,0.358259,
2006-03-22, 00:59:00,VALID,915.286,VALID,0,VALID,100,VALID,0.0339617,VALID,20.2395,VALID,350,VALID,0.175967,
2006-03-22, 01:00:00,VALID,915.251,VALID,0,VALID,100,VALID,0.0169808,VALID,19.8625,VALID,350,VALID,0.291016,
2006-03-22, 01:01:00,VALID,915.23,VALID,0,VALID,100,VALID,0.0169808,VALID,19.8232,VALID,351,VALID,0.0396341,
2006-03-22, 01:02:00,VALID,915.222,VALID,0,VALID,100,VALID,0.0169808,VALID,20.4232,VALID,351,VALID,0.00223214,
2006-03-22, 01:03:00,VALID,915.212,VALID,0,VALID,100,VALID,0.0169808,VALID,19.8332,VALID,351,VALID,0,
2006-03-22, 01:04:00,VALID,915.202,VALID,0,VALID,100,VALID,0.0169808,VALID,20.0447,VALID,351,VALID,0,
2006-03-22, 01:05:00,VALID,915.187,VALID,0,VALID,100,VALID,0.0509425,VALID,19.1303,VALID,351,VALID,0.171274,
2006-03-22, 01:06:00,VALID,915.185,VALID,0,VALID,100,VALID,-0.0849042,VALID,20.3593,VALID,351,VALID,0.180575,
2006-03-22, 01:07:00,VALID,915.178,VALID,0,VALID,100,VALID,0,VALID,19.658,VALID,350,VALID,0.163681,
2006-03-22, 01:08:00,VALID,915.162,VALID,0,VALID,100,VALID,-0.101885,VALID,19.8499,VALID,351,VALID,0.372514,
2006-03-22, 01:09:00,VALID,915.14,VALID,0,VALID,100,VALID,-0.700628,VALID,19.6812,VALID,359,VALID,0.485709,
2006-03-22, 01:10:00,VALID,915.131,VALID,0,VALID,100,VALID,-0.0339617,VALID,19.6475,VALID,354,VALID,0.0863186,
2006-03-22, 01:11:00,VALID,915.11,VALID,0,VALID,100,VALID,-0.0169808,VALID,20.1805,VALID,354,VALID,0.255208,
2006-03-22, 01:12:00,VALID,915.096,VALID,0,VALID,100,VALID,-0.0679233,VALID,20.254,VALID,358,VALID,0.566592,
2006-03-22, 01:13:00,VALID,915.084,VALID,0,VALID,100,VALID,-0.0169808,VALID,19.244,VALID,5,VALID,0.523438,
2006-03-22, 01:14:00,VALID,915.073,VALID,0,VALID,100,VALID,-0.0339617,VALID,20.1263,VALID,9,VALID,0.621354,
2006-03-22, 01:15:00,VALID,915.066,VALID,0,VALID,100,VALID,-0.0339617,VALID,19.0111,VALID,19,VALID,0.727163,
2006-03-22, 01:16:00,VALID,915.063,VALID,0,VALID,100,VALID,-0.0679233,VALID,19.6041,VALID,21,VALID,0.491997,
2006-03-22, 01:17:00,VALID,915.055,VALID,0,VALID,100,VALID,-0.0849042,VALID,19.7471,VALID,21,VALID,0.453307,
2006-03-22, 01:18:00,VALID,915.042,VALID,0,VALID,100,VALID,-0.0509425,VALID,19.4347,VALID,21,VALID,0.520167,
2006-03-22, 01:19:00,VALID,915.031,VALID,0,VALID,100,VALID,-0.0339617,VALID,20.6357,VALID,21,VALID,0.70918,
2006-03-22, 01:20:00,VALID,915.027,VALID,0,VALID,100,VALID,-0.101885,VALID,18.8879,VALID,22,VALID,0.46218,
2006-03-22, 01:21:00,VALID,915.025,VALID,0,VALID,100,VALID,-0.0849042,VALID,19.9868,VALID,21,VALID,0.651708,
2006-03-22, 01:22:00,VALID,915.037,VALID,0,VALID,100,VALID,-0.0849042,VALID,20.4139,VALID,21,VALID,0.577363,
2006-03-22, 01:23:00,VALID,915.006,VALID,0,VALID,100,VALID,-0.0509425,VALID,20.1463,VALID,21,VALID,0.672828,
2006-03-22, 01:24:00,VALID,914.988,VALID,0,VALID,100,VALID,-0.850314,VALID,20.628,VALID,22,VALID,0.620393,
2006-03-22, 01:25:00,VALID,914.967,VALID,0,VALID,100,VALID,-0.816352,VALID,19.2557,VALID,22,VALID,0.781613,
2006-03-22, 01:26:00,VALID,914.944,VALID,0,VALID,100,VALID,0.0169808,VALID,19.6605,VALID,23,VALID,0.941692,
2006-03-22, 01:27:00,VALID,914.931,VALID,0,VALID,100,VALID,0.0339617,VALID,19.7909,VALID,26,VALID,0.739281,
2006-03-22, 01:28:00,VALID,914.922,VALID,0,VALID,100,VALID,0.0339617,VALID,19.4794,VALID,18,VALID,0.576172,
2006-03-22, 01:29:00,VALID,914.884,VALID,0,VALID,100,VALID,0.0169808,VALID,19.8806,VALID,2,VALID,0.498512,
2006-03-22, 01:30:00,VALID,914.867,VALID,0,VALID,100,VALID,0.0339617,VALID,19.2191,VALID,5,VALID,0.478468,
2006-03-22, 01:31:00,VALID,914.842,VALID,0,VALID,100,VALID,-0.0339617,VALID,19.2721,VALID,354,VALID,0.927144,
2006-03-22, 01:32:00,VALID,914.818,VALID,0,VALID,100,VALID,0.0339617,VALID,20.2606,VALID,4,VALID,0.655859,
2006-03-22, 01:33:00,VALID,914.794,VALID,0,VALID,100,VALID,0,VALID,19.7325,VALID,10,VALID,0.656795,
2006-03-22, 01:34:00,VALID,914.761,VALID,0,VALID,100,VALID,-0.0679233,VALID,19.6297,VALID,11,VALID,0.772195,
2006-03-22, 01:35:00,VALID,914.745,VALID,0,VALID,100,VALID,-0.0679233,VALID,20.3164,VALID,2,VALID,0.848633,
2006-03-22, 01:36:00,VALID,914.728,VALID,0,VALID,100,VALID,-0.0509425,VALID,19.3667,VALID,331,VALID,1.08358,
2006-03-22, 01:37:00,VALID,914.72,VALID,0,VALID,100,VALID,-0.0849042,VALID,20.1874,VALID,356,VALID,0.869913,
2006-03-22, 01:38:00,VALID,914.698,VALID,0,VALID,100,VALID,-0.0679233,VALID,19.8439,VALID,358,VALID,0.822674,
2006-03-22, 01:39:00,VALID,914.683,VALID,0,VALID,100,VALID,-0.850314,VALID,19.8142,VALID,1,VALID,1.14613,
2006-03-22, 01:40:00,VALID,914.669,VALID,0,VALID,100,VALID,-1,VALID,20.141,VALID,358,VALID,0.709375,
2006-03-22, 01:41:00,VALID,914.667,VALID,0,VALID,100,VALID,-1,VALID,20.2258,VALID,321,VALID,0.538699,
2006-03-22, 01:42:00,VALID,914.654,VALID,0,VALID,100,VALID,-1,VALID,20.3837,VALID,310,VALID,0.421303,
2006-03-22, 01:43:00,VALID,914.644,VALID,0,VALID,100,VALID,-1,VALID,19.5771,VALID,307,VALID,0.632813,
2006-03-22, 01:44:00,VALID,914.631,VALID,0,VALID,100,VALID,-0.850314,VALID,19.7937,VALID,345,VALID,0.512109,
2006-03-22, 01:45:00,VALID,914.633,VALID,0,VALID,100,VALID,-0.0849042,VALID,19.7363,VALID,7,VALID,0.439236,
2006-03-22, 01:46:00,VALID,914.648,VALID,0,VALID,100,VALID,-0.0169808,VALID,18.8275,VALID,7,VALID,0.306323,
2006-03-22, 01:47:00,VALID,914.651,VALID,0,VALID,100,VALID,-0.0509425,VALID,19.3415,VALID,7,VALID,0.141715,
2006-03-22, 01:48:00,VALID,914.647,VALID,0,VALID,100,VALID,-0.101885,VALID,19.8276,VALID,7,VALID,0.133594,
2006-03-22, 01:49:00,VALID,914.641,VALID,0,VALID,100,VALID,-0.0849042,VALID,20.3632,VALID,7,VALID,0.372456,
2006-03-22, 01:50:00,VALID,914.621,VALID,0,VALID,100,VALID,-0.0339617,VALID,20.1525,VALID,348,VALID,0.377734,
2006-03-22, 01:51:00,VALID,914.623,VALID,0,VALID,100,VALID,-0.0849042,VALID,19.5806,VALID,345,VALID,0.0741235,
2006-03-22, 01:52:00,VALID,914.616,VALID,0,VALID,100,VALID,0.0339617,VALID,18.8307,VALID,351,VALID,0.265625,
2006-03-22, 01:53:00,VALID,914.62,VALID,0,VALID,100,VALID,0.0169808,VALID,20.1468,VALID,351,VALID,0,
2006-03-22, 01:54:00,VALID,914.62,VALID,0,VALID,100,VALID,-0.666667,VALID,20.079,VALID,351,VALID,0.000195313,
2006-03-22, 01:55:00,VALID,914.631,VALID,0,VALID,100,VALID,0.0169808,VALID,19.5592,VALID,351,VALID,0.00093006,
2006-03-22, 01:56:00,VALID,914.618,VALID,0,VALID,100,VALID,0.0339617,VALID,19.4887,VALID,351,VALID,0.0751488,
2006-03-22, 01:57:00,VALID,914.626,VALID,0,VALID,100,VALID,0,VALID,20.9364,VALID,351,VALID,0.279891,
2006-03-22, 01:58:00,VALID,914.629,VALID,0,VALID,100,VALID,0,VALID,19.4683,VALID,351,VALID,0.446584,
2006-03-22, 01:59:00,VALID,914.625,VALID,0,VALID,100,VALID,0.0169808,VALID,19.5765,VALID,351,VALID,0.189317,
2006-03-22, 02:00:00,VALID,914.625,VALID,0,VALID,100,VALID,0.0169808,VALID,18.9346,VALID,351,VALID,0.209517,
2006-03-22, 02:01:00,VALID,914.615,VALID,0,VALID,100,VALID,0.0339617,VALID,20.0148,VALID,351,VALID,0.205903,
2006-03-22, 02:02:00,VALID,914.617,VALID,0,VALID,100,VALID,0.0169808,VALID,19.5451,VALID,334,VALID,0.215278,
2006-03-22, 02:03:00,VALID,914.605,VALID,0,VALID,100,VALID,-0.0849042,VALID,20.0301,VALID,311,VALID,0.244234,
2006-03-22, 02:04:00,VALID,914.608,VALID,0,VALID,100,VALID,-0.101885,VALID,20.0317,VALID,300,VALID,0.28316,
2006-03-22, 02:05:00,VALID,914.599,VALID,0,VALID,100,VALID,0,VALID,20.042,VALID,273,VALID,0.327762,
2006-03-22, 02:06:00,VALID,914.573,VALID,0,VALID,100,VALID,0.0169808,VALID,19.4309,VALID,270,VALID,0.162538,
2006-03-22, 02:07:00,VALID,914.556,VALID,0,VALID,100,VALID,0,VALID,19.841,VALID,270,VALID,0.136303,
2006-03-22, 02:08:00,VALID,914.544,VALID,0,VALID,100,VALID,0.0169808,VALID,19.5269,VALID,253,VALID,0.368459,
2006-03-22, 02:09:00,VALID,914.516,VALID,0,VALID,100,VALID,-0.666667,VALID,20.3094,VALID,233,VALID,0.21131,
2006-03-22, 02:10:00,VALID,914.49,VALID,0,VALID,100,VALID,-0.0849042,VALID,20.1291,VALID,233,VALID,0.0459666,
2006-03-22, 02:11:00,VALID,914.452,VALID,0,VALID,100,VALID,0.0169808,VALID,19.4503,VALID,233,VALID,0.127046,
2006-03-22, 02:12:00,VALID,914.418,VALID,0,VALID,100,VALID,0,VALID,18.8012,VALID,233,VALID,0.166969,
2006-03-22, 02:13:00,VALID,914.395,VALID,0,VALID,100,VALID,0.0169808,VALID,19.8434,VALID,321,VALID,0.483817,
2006-03-22, 02:14:00,VALID,914.363,VALID,0,VALID,100,VALID,0,VALID,19.6165,VALID,1,VALID,0.36942,
2006-03-22, 02:15:00,VALID,914.352,VALID,0,VALID,100,VALID,0.0169808,VALID,21.0606,VALID,3,VALID,0.547256,
2006-03-22, 02:16:00,VALID,914.346,VALID,0,VALID,100,VALID,0.0169808,VALID,20.4333,VALID,20,VALID,0.586119,
2006-03-22, 02:17:00,VALID,914.338,VALID,0,VALID,100,VALID,0.0339617,VALID,19.62,VALID,20,VALID,0.478051,
2006-03-22, 02:18:00,VALID,914.339,VALID,0,VALID,100,VALID,0.0169808,VALID,19.7857,VALID,20,VALID,0.787642,
2006-03-22, 02:19:00,VALID,914.327,VALID,0,VALID,100,VALID,0,VALID,19.7094,VALID,20,VALID,0.581759,
2006-03-22, 02:20:00,VALID,914.308,VALID,0,VALID,100,VALID,0.0169808,VALID,20.4194,VALID,20,VALID,0.445313,
2006-03-22, 02:21:00,VALID,914.3,VALID,0,VALID,100,VALID,0,VALID,19.1176,VALID,20,VALID,0.263148,
2006-03-22, 02:22:00,VALID,914.291,VALID,0,VALID,100,VALID,-0.0169808,VALID,19.918,VALID,20,VALID,0.290625,
2006-03-22, 02:23:00,VALID,914.27,VALID,0,VALID,100,VALID,-0.0849042,VALID,20.4984,VALID,20,VALID,0.478016,
2006-03-22, 02:24:00,VALID,914.257,VALID,0,VALID,100,VALID,-0.816352,VALID,19.9123,VALID,19,VALID,0.714939,
2006-03-22, 02:25:00,VALID,914.246,VALID,0,VALID,100,VALID,-0.833333,VALID,19.962,VALID,16,VALID,0.790551,
2006-03-22, 02:26:00,VALID,914.247,VALID,0,VALID,100,VALID,0.0169808,VALID,19.7396,VALID,5,VALID,0.804883,
2006-03-22, 02:27:00,VALID,914.228,VALID,0,VALID,100,VALID,-0.0509425,VALID,19.694,VALID,9,VALID,0.545759,
2006-03-22, 02:28:00,VALID,914.205,VALID,0,VALID,100,VALID,-0.0679233,VALID,19.0793,VALID,12,VALID,0.62064,
2006-03-22, 02:29:00,VALID,914.198,VALID,0,VALID,100,VALID,0.0339617,VALID,20.9787,VALID,14,VALID,0.100142,
2006-03-22, 02:30:00,VALID,914.191,VALID,0,VALID,100,VALID,-0.0679233,VALID,19.7318,VALID,14,VALID,0.0245808,
2006-03-22, 02:31:00,VALID,914.184,VALID,0,VALID,100,VALID,-0.0849042,VALID,20.5543,VALID,14,VALID,0,
2006-03-22, 02:32:00,VALID,914.171,VALID,0,VALID,100,VALID,-0.101885,VALID,19.8096,VALID,14,VALID,0.036258,
2006-03-22, 02:33:00,VALID,914.162,VALID,0,VALID,100,VALID,-0.0679233,VALID,19.526,VALID,14,VALID,0.00595238,
2006-03-22, 02:34:00,VALID,914.148,VALID,0,VALID,100,VALID,-0.0849042,VALID,19.1657,VALID,1,VALID,0.163281,
2006-03-22, 02:35:00,VALID,914.13,VALID,0,VALID,100,VALID,-0.0679233,VALID,19.5018,VALID,360,VALID,0.263148,
2006-03-22, 02:36:00,VALID,914.119,VALID,0,VALID,100,VALID,0,VALID,19.6845,VALID,325,VALID,0.353993,
2006-03-22, 02:37:00,VALID,914.107,VALID,0,VALID,100,VALID,0.0169808,VALID,19.5535,VALID,340,VALID,0.428052,
2006-03-22, 02:38:00,VALID,914.083,VALID,0,VALID,100,VALID,0.0169808,VALID,19.5618,VALID,1,VALID,0.403516,
2006-03-22, 02:39:00,VALID,914.062,VALID,0,VALID,100,VALID,-0.683648,VALID,19.6378,VALID,23,VALID,0.872024,
2006-03-22, 02:40:00,VALID,914.047,VALID,0,VALID,100,VALID,-0.0509425,VALID,20.8076,VALID,24,VALID,1.02176,
2006-03-22, 02:41:00,VALID,914.042,VALID,0,VALID,100,VALID,0.0339617,VALID,19.5078,VALID,20,VALID,0.807478,
2006-03-22, 02:42:00,VALID,914.044,VALID,0,VALID,100,VALID,0.0169808,VALID,20.0093,VALID,19,VALID,0.51508,
2006-03-22, 02:43:00,VALID,914.043,VALID,0,VALID,100,VALID,-0.101885,VALID,19.6798,VALID,23,VALID,0.705915,
2006-03-22, 02:44:00,VALID,914.039,VALID,0,VALID,100,VALID,-0.0849042,VALID,19.3682,VALID,22,VALID,0.683594,
2006-03-22, 02:45:00,VALID,914.034,VALID,0,VALID,100,VALID,-0.0849042,VALID,20.1598,VALID,11,VALID,0.773438,
2006-03-22, 02:46:00,VALID,914.021,VALID,0,VALID,100,VALID,0,VALID,20.3199,VALID,10,VALID,0.599306,
2006-03-22, 02:47:00,VALID,914.023,VALID,0,VALID,100,VALID,0,VALID,20.2023,VALID,21,VALID,0.484549,
2006-03-22, 02:48:00,VALID,914.029,VALID,0,VALID,100,VALID,0,VALID,20.0852,VALID,359,VALID,0.386541,
2006-03-22, 02:49:00,VALID,914.024,VALID,0,VALID,100,VALID,0,VALID,19.9203,VALID,273,VALID,0.174414,
2006-03-22, 02:50:00,VALID,914.041,VALID,0,VALID,100,VALID,0.0169808,VALID,20.3102,VALID,273,VALID,0.00053267,
2006-03-22, 02:51:00,VALID,914.039,VALID,0,VALID,100,VALID,0.0169808,VALID,20.3209,VALID,254,VALID,0.12965,
2006-03-22, 02:52:00,VALID,914.04,VALID,0,VALID,100,VALID,0.0169808,VALID,19.8034,VALID,211,VALID,0.212391,
2006-03-22, 02:53:00,VALID,914.053,VALID,0,VALID,100,VALID,0.0339617,VALID,19.0341,VALID,211,VALID,0.142578,
2006-03-22, 02:54:00,VALID,914.041,VALID,0,VALID,100,VALID,-0.816352,VALID,20.0885,VALID,211,VALID,0.0171494,
2006-03-22, 02:55:00,VALID,914.037,VALID,0,VALID,100,VALID,-1,VALID,19.6413,VALID,200,VALID,0.424361,
2006-03-22, 02:56:00,VALID,914.049,VALID,0,VALID,100,VALID,-1,VALID,20.3083,VALID,347,VALID,0.701853,
2006-03-22, 02:57:00,VALID,914.037,VALID,0,VALID,100,VALID,-1,VALID,19.1078,VALID,190,VALID,0.722301,
2006-03-22, 02:58:00,VALID,914.03,VALID,0,VALID,100,VALID,-0.833333,VALID,20.0011,VALID,111,VALID,0.441679,
2006-03-22, 02:59:00,VALID,914.013,VALID,0,VALID,100,VALID,0.0339617,VALID,19.9701,VALID,66,VALID,0.583984,
2006-03-22, 03:00:00,VALID,914.017,VALID,0,VALID,100,VALID,0,VALID,19.8213,VALID,354,VALID,0.553571,
2006-03-22, 03:01:00,VALID,914.006,VALID,0,VALID,100,VALID,0,VALID,19.7416,VALID,21,VALID,0.51734,
2006-03-22, 03:02:00,VALID,914,VALID,0,VALID,100,VALID,0.0169808,VALID,20.7897,VALID,349,VALID,0.278011,
2006-03-22, 03:03:00,VALID,913.986,VALID,0,VALID,100,VALID,-0.0169808,VALID,18.765,VALID,18,VALID,0.449777,
2006-03-22, 03:04:00,VALID,913.989,VALID,0,VALID,100,VALID,-0.0679233,VALID,19.9421,VALID,11,VALID,0.463605,
2006-03-22, 03:05:00,VALID,913.982,VALID,0,VALID,100,VALID,-0.101885,VALID,19.6558,VALID,12,VALID,0.820126,
2006-03-22, 03:06:00,VALID,913.979,VALID,0,VALID,100,VALID,-0.0849042,VALID,19.2841,VALID,13,VALID,0.558333,
2006-03-22, 03:07:00,VALID,913.957,VALID,0,VALID,100,VALID,-0.101885,VALID,20.1511,VALID,24,VALID,0.435082,
2006-03-22, 03:08:00,VALID,913.951,VALID,0,VALID,100,VALID,-0.0339617,VALID,20.2511,VALID,31,VALID,0.397017,
2006-03-22, 03:09:00,VALID,913.927,VALID,0,VALID,100,VALID,-0.649686,VALID,19.8462,VALID,31,VALID,0.412326,
2006-03-22, 03:10:00,VALID,913.928,VALID,0,VALID,100,VALID,-0.101885,VALID,20.1773,VALID,31,VALID,0.208147,
2006-03-22, 03:11:00,VALID,913.905,VALID,0,VALID,100,VALID,-0.101885,VALID,20.0124,VALID,29,VALID,0.176314,
2006-03-22, 03:12:00,VALID,913.906,VALID,0,VALID,100,VALID,-0.0849042,VALID,20.337,VALID,29,VALID,0.557639,
2006-03-22, 03:13:00,VALID,913.905,VALID,0,VALID,100,VALID,-0.0679233,VALID,19.0664,VALID,29,VALID,0.237926,
2006-03-22, 03:14:00,VALID,913.91,VALID,0,VALID,100,VALID,-0.0679233,VALID,19.6878,VALID,29,VALID,0.104421,
2006-03-22, 03:15:00,VALID,913.904,VALID,0,VALID,100,VALID,-0.0169808,VALID,18.8937,VALID,29,VALID,0.0432413,
2006-03-22, 03:16:00,VALID,913.906,VALID,0,VALID,100,VALID,-0.0509425,VALID,20.2657,VALID,29,VALID,0.038553,
2006-03-22, 03:17:00,VALID,913.893,VALID,0,VALID,100,VALID,0,VALID,20.4616,VALID,29,VALID,0.0431463,
2006-03-22, 03:18:00,VALID,913.885,VALID,0,VALID,100,VALID,0,VALID,19.5284,VALID,29,VALID,0.238009,
2006-03-22, 03:19:00,VALID,913.876,VALID,0,VALID,100,VALID,-0.0169808,VALID,19.1473,VALID,26,VALID,0.391667,
2006-03-22, 03:20:00,VALID,913.858,VALID,0,VALID,100,VALID,-0.0679233,VALID,21.348,VALID,23,VALID,0.165551,
2006-03-22, 03:21:00,VALID,913.856,VALID,0,VALID,100,VALID,0,VALID,19.5134,VALID,53,VALID,0.303993,
2006-03-22, 03:22:00,VALID,913.847,VALID,0,VALID,100,VALID,-0.0849042,VALID,19.2134,VALID,119,VALID,0.232244,
2006-03-22, 03:23:00,VALID,913.82,VALID,0,VALID,100,VALID,-0.0509425,VALID,20.1375,VALID,130,VALID,0.303354,
2006-03-22, 03:24:00,VALID,913.813,VALID,0,VALID,100,VALID,-0.666667,VALID,20.3246,VALID,238,VALID,0.374306,
2006-03-22, 03:25:00,VALID,913.799,VALID,0,VALID,100,VALID,0,VALID,19.905,VALID,257,VALID,0.223292,
2006-03-22, 03:26:00,VALID,913.787,VALID,0,VALID,100,VALID,0.0169808,VALID,19.7193,VALID,334,VALID,0.355664,
2006-03-22, 03:27:00,VALID,913.757,VALID,0,VALID,100,VALID,0,VALID,19.1442,VALID,96,VALID,0.403706,
2006-03-22, 03:28:00,VALID,913.747,VALID,0.2,VALID,100,VALID,0.0169808,VALID,20.107,VALID,113,VALID,0.310138,
2006-03-22, 03:29:00,VALID,913.716,VALID,0,VALID,100,VALID,0,VALID,19.8377,VALID,302,VALID,1.25608,
2006-03-22, 03:30:00,VALID,913.699,VALID,0,VALID,100,VALID,0,VALID,19.256,VALID,14,VALID,0.975419,
2006-03-22, 03:31:00,VALID,913.692,VALID,0,VALID,100,VALID,0,VALID,19.4184,VALID,263,VALID,0.557617,
2006-03-22, 03:32:00,VALID,913.667,VALID,0,VALID,100,VALID,-0.0339617,VALID,19.4999,VALID,233,VALID,0.997523,
2006-03-22, 03:33:00,VALID,913.654,VALID,0,VALID,100,VALID,0,VALID,20.0192,VALID,21,VALID,0.830543,
2006-03-22, 03:34:00,VALID,913.645,VALID,0,VALID,100,VALID,-0.0849042,VALID,19.7686,VALID,20,VALID,1.09498,
2006-03-22, 03:35:00,VALID,913.644,VALID,0,VALID,100,VALID,-0.101885,VALID,19.5388,VALID,9,VALID,0.738021,
2006-03-22, 03:36:00,VALID,913.663,VALID,0,VALID,100,VALID,-0.101885,VALID,19.8716,VALID,309,VALID,0.726563,
2006-03-22, 03:37:00,VALID,913.658,VALID,0,VALID,100,VALID,-0.101885,VALID,19.5743,VALID,178,VALID,0.503049,
2006-03-22, 03:38:00,VALID,913.676,VALID,0,VALID,100,VALID,-0.101885,VALID,20.1806,VALID,22,VALID,0.493437,
2006-03-22, 03:39:00,VALID,913.686,VALID,0,VALID,100,VALID,-0.850314,VALID,19.4472,VALID,30,VALID,0.318359,
2006-03-22, 03:40:00,VALID,913.688,VALID,0,VALID,100,VALID,-0.833333,VALID,20.3262,VALID,47,VALID,0.450107,
2006-03-22, 03:41:00,VALID,913.703,VALID,0,VALID,100,VALID,-0.0169808,VALID,19.1273,VALID,54,VALID,0.46189,
2006-03-22, 03:42:00,VALID,913.712,VALID,0,VALID,100,VALID,-0.0339617,VALID,19.1437,VALID,47,VALID,0.577009,